Weather History for Rocky Mount, NC

Change the Weather History Date:

Friday, January 18, 2013

  Actual Average Record
Temperature  
Mean Temperature 38 °F -  
Max Temperature 48 °F 49 °F 71 °F (1969)
Min Temperature 28 °F 29 °F 9 °F (1965)
Degree Days  
Heating Degree Days 27    
Moisture  
Dew Point 28 °F    
Average Humidity 74    
Maximum Humidity 92    
Minimum Humidity 36    
Precipitation  
Precipitation 0.05 in - - ()
Sea Level Pressure  
Sea Level Pressure 30.41 in    
Wind  
Wind Speed 7 mph (NNW)    
Max Wind Speed 14 mph    
Max Gust Speed 16 mph    
Visibility 9 miles    
Events Snow    
Averages and records for this station are not official NWS values.
T = Trace of Precipitation, MM = Missing Value Source: NWS Daily Summary

Daily Weather History Graph

Daily Weather History Graph

Search for Another Location

Airport:

Trip Planner

Search our weather history database for the weather conditions in past years. The results will help you decide how hot, cold, wet, or windy it might be!

Date:

Astronomy

Jan. 18, 2013 Rise Set
Actual Time 7:20 AM EST 5:24 PM EST
Civil Twilight 6:52 AM EST 5:52 PM EST
Nautical Twilight 6:21 AM EST 6:23 PM EST
Astronomical Twilight 5:50 AM EST 6:54 PM EST
Moon 11:13 AM EST (1/18) No Moon Set
Length of Visible Light 10h 59m
Length of Day
10h 04m
Waxing Crescent, 47% of the Moon is Illuminated
Jan 18
Waxing Crescent
Jan 18
First Quarter
Jan 26
Full
Feb 3
Last Quarter
Feb 10
New

Hourly Weather History & Observations

Time (EST) Temp. Windchill Dew Point Humidity Pressure Visibility Wind Dir Wind Speed Gust Speed Precip Events Conditions
12:53 AM 34.0 °F 25.5 °F 32.0 °F 92% 30.15 in 4.0 mi NW 11.5 mph - 0.02 in Snow Light Snow
1:53 AM 35.1 °F 28.6 °F 33.1 °F 92% 30.16 in 10.0 mi NNW 8.1 mph - 0.03 in   Overcast
2:53 AM 36.0 °F 29.0 °F 33.1 °F 89% 30.21 in 10.0 mi NW 9.2 mph - N/A   Overcast
3:53 AM 36.0 °F 29.6 °F 33.1 °F 89% 30.22 in 10.0 mi NW 8.1 mph - N/A   Overcast
4:53 AM 35.1 °F 28.6 °F 33.1 °F 92% 30.25 in 9.0 mi WNW 8.1 mph - N/A   Overcast
5:53 AM 34.0 °F 28.0 °F 32.0 °F 92% 30.30 in 8.0 mi WNW 6.9 mph - N/A   Overcast
6:53 AM 33.1 °F 28.7 °F 30.9 °F 92% 30.33 in 8.0 mi WNW 4.6 mph - N/A   Mostly Cloudy
7:32 AM 33.8 °F 27.7 °F 30.2 °F 87% 30.34 in 7.0 mi NW 6.9 mph - N/A   Scattered Clouds
7:53 AM 33.1 °F - 30.9 °F 92% 30.36 in 6.0 mi Calm Calm - N/A   Clear
8:53 AM 37.0 °F 31.6 °F 30.9 °F 79% 30.40 in 10.0 mi NNW 6.9 mph - N/A   Clear
9:53 AM 39.9 °F 33.4 °F 30.9 °F 70% 30.45 in 10.0 mi NNW 10.4 mph - N/A   Clear
10:53 AM 44.1 °F 37.4 °F 28.9 °F 55% 30.47 in 10.0 mi NNW 13.8 mph - N/A   Clear
11:53 AM 46.0 °F 42.5 °F 27.0 °F 47% 30.45 in 10.0 mi NNW 6.9 mph - N/A   Clear
12:53 PM 48.0 °F - 25.0 °F 41% 30.44 in 10.0 mi NNE 8.1 mph - N/A   Clear
1:53 PM 48.0 °F - 21.9 °F 36% 30.45 in 10.0 mi Variable 5.8 mph 16.1 mph N/A   Clear
2:53 PM 48.0 °F - 23.0 °F 37% 30.46 in 10.0 mi NNW 6.9 mph - N/A   Clear
3:53 PM 46.9 °F - 23.0 °F 39% 30.47 in 10.0 mi NNW 5.8 mph - N/A   Clear
4:53 PM 45.0 °F 42.6 °F 25.0 °F 46% 30.49 in 10.0 mi NE 4.6 mph - N/A   Clear
5:53 PM 37.0 °F - 27.0 °F 67% 30.52 in 10.0 mi Calm Calm - N/A   Clear
6:53 PM 35.1 °F - 28.0 °F 76% 30.54 in 10.0 mi Calm Calm - N/A   Clear
7:53 PM 32.0 °F - 28.0 °F 85% 30.55 in 10.0 mi Calm Calm - N/A   Clear
8:53 PM 30.0 °F - 26.1 °F 85% 30.55 in 10.0 mi Calm Calm - N/A   Clear
9:53 PM 30.0 °F - 26.1 °F 85% 30.55 in 10.0 mi Calm Calm - N/A   Clear
10:53 PM 28.9 °F - 26.1 °F 89% 30.53 in 10.0 mi Calm Calm - N/A   Clear
11:53 PM 28.0 °F - 26.1 °F 92% 30.52 in 9.0 mi Calm Calm - N/A   Clear